Simultaneous Nadir Overpasses (SNOs) Predictions

Prediction of SNOs near equator between AQUA and NPP Satellite Orbit:

Table of predicted SNOs near equator for the next 14.0 days since TLE Epoch: 2/12/2016
Index Date (AQUA) Time (AQUA) AQUA Lat,Lon Date (NPP) Time (NPP) NPP Lat,Lon Distance(km) Time Diff (sec)
1 02/15/2016 07:09:25 -27.58, -87.74 02/15/2016 06:59:25 -27.58, -87.77 3.15 600
2 02/15/2016 07:51:54 2.15, 85.64 02/15/2016 07:43:01 2.16, 85.57 7.86 533
3 02/15/2016 08:40:02 2.34,-105.75 02/15/2016 08:32:24 2.38,-106.09 37.52 458
4 02/15/2016 09:28:17 -6.93, 62.85 02/15/2016 09:21:54 -7.06, 62.26 67.15 383
5 02/15/2016 10:16:25 11.41,-128.52 02/15/2016 10:11:17 11.60,-129.38 95.67 308
6 02/17/2016 23:23:28 -18.58, 30.29 02/17/2016 23:13:43 -18.58, 30.28 0.99 585
7 02/18/2016 00:08:09 1.08,-158.27 02/17/2016 23:59:34 1.05,-158.41 15.74 515
8 02/18/2016 00:56:17 3.40, 10.34 02/18/2016 00:48:57 3.49, 9.94 45.78 440
9 02/18/2016 01:44:31 -8.05, 178.96 02/18/2016 01:38:27 -8.17, 178.29 75.36 364
10 02/20/2016 15:37:48 -10.67, 147.92 02/20/2016 15:28:19 -10.68, 147.91 1.27 569
11 02/20/2016 16:24:21 -0.07, -42.15 02/20/2016 16:16:05 -0.11, -42.37 24.31 496
12 02/20/2016 17:12:29 4.56, 126.46 02/20/2016 17:05:28 4.65, 125.98 54.25 421
13 02/20/2016 18:00:44 -9.14, -64.93 02/20/2016 17:54:58 -9.33, -65.67 83.57 346
14 02/23/2016 07:52:27 -3.87, -94.74 02/23/2016 07:43:15 -3.88, -94.77 3.60 552
15 02/23/2016 08:40:33 -1.25, 73.97 02/23/2016 08:32:36 -1.32, 73.68 33.00 477
16 02/23/2016 09:28:41 5.74,-117.41 02/23/2016 09:21:59 5.87,-117.97 62.78 402
17 02/23/2016 10:16:56 -10.32, 51.20 02/23/2016 10:11:30 -10.48, 50.37 91.81 326
18 02/25/2016 23:25:18 24.53,-151.15 02/25/2016 23:15:18 24.54,-151.19 3.63 600
19 02/26/2016 00:08:30 -2.18, 21.50 02/25/2016 23:59:37 -2.14, 21.40 11.68 533
20 02/26/2016 00:56:45 -2.40,-169.91 02/26/2016 00:49:08 -2.47,-170.28 41.92 457
21 02/26/2016 01:44:52 6.95, -1.28 02/26/2016 01:38:30 7.07, -1.91 71.43 382




NCC Satellite Simultaneous Nadir Overpasses (SNOs) Prediction Service
